Location: Cadenet
(43.7345°N, 5.3750°E)
Time: 04:58:23
(UTC+00:00)

Meteor PRIRODA - Pass Details

Date: 18 February 2020
Orbit: 490 x 512 km, 97.5° (Epoch: 30 March)

Event Time Altitude Azimuth Distance (km) Brightness Sun altitude
Rises 04:46:27 0° 11° (N) 2,620 7.5 -20.0°
Reaches altitude 10° 04:48:33 10° 10° (N) 1,726 6.5 -19.7°
Maximum altitude 04:52:16 77° 284° (WNW) 521 3.5 -19.0°
Enters shadow 04:55:00 17° 200° (SSW) 1,317 5.5 -18.5°
